Tel Aviv, Israel

3:55 PM IST on December 17, 2017 (GMT +0200)
Ben Gurion

Weather History for LLBG - December, 2017

Change the Weather History Date:

Thursday, December 7, 2017

  Actual Average Record
Temperature  
Mean Temperature 56 °F -  
Max Temperature 62 °F 64 °F 82 °F (1997)
Min Temperature 50 °F 49 °F 45 °F (2015)
Degree Days  
Heating Degree Days 9    
Growing Degree Days 6 (Base 50)    
Moisture  
Dew Point 42 °F    
Average Humidity 60    
Maximum Humidity 94    
Minimum Humidity 32    
Precipitation  
Precipitation 0.00 in - - ()
Sea Level Pressure  
Sea Level Pressure 30.18 in    
Wind  
Wind Speed 7 mph ()    
Max Wind Speed 21 mph    
Max Gust Speed 25 mph    
Visibility 6.2 miles    
Events Rain    
Averages and records for this station are not official NWS values.
T = Trace of Precipitation, MM = Missing Value Source: Averaged Metar Reports

Daily Weather History Graph

Daily Weather History Graph

Search for Another Location

Airport or City:

Trip Planner

Search our weather history database for the weather conditions in past years. The results will help you decide how hot, cold, wet, or windy it might be!

Date:

Astronomy

Dec. 07, 2017 Rise Set
Actual Time 6:27 AM IST 4:35 PM IST
Civil Twilight 6:00 AM IST 5:02 PM IST
Nautical Twilight 5:30 AM IST 5:33 PM IST
Astronomical Twilight 5:00 AM IST 6:02 PM IST
Moon 8:53 PM IST (12/7) 9:55 AM IST (12/7)
Length of Visible Light 11h 01m
Length of Day
10h 08m
Waning Gibbous, 81% of the Moon is Illuminated
Dec 7
Waning Gibbous
Dec 10
Last Quarter
Dec 18
New
Dec 26
First Quarter
Jan 2
Full

Hourly Weather History & Observations

Time (IST) Temp. Dew Point Humidity Pressure Visibility Wind Dir Wind Speed Gust Speed Precip Events Conditions
12:20 AM 53.6 °F 50.0 °F 88% 30.04 in 6.2 mi SSW 4.6 mph - N/A   Mostly Cloudy
12:50 AM 57.2 °F 41.0 °F 55% 30.04 in 6.2 mi NW 13.8 mph 25.3 mph N/A   Mostly Cloudy
1:20 AM 59.0 °F 39.2 °F 48% 30.06 in 6.2 mi NW 20.7 mph - N/A   Mostly Cloudy
1:50 AM 57.2 °F 37.4 °F 48% 30.06 in 6.2 mi WNW 12.7 mph - N/A   Scattered Clouds
2:00 AM 57 °F 38 °F 37% 30.07 in 6 mi WNW 12.7 mph - -   Partly Cloudy
2:20 AM 57.2 °F 37.4 °F 48% 30.06 in 6.2 mi NW 17.3 mph - N/A   Scattered Clouds
2:50 AM 55.4 °F 44.6 °F 67% 30.06 in 6.2 mi West 6.9 mph - N/A Rain Light Rain
3:20 AM 51.8 °F 48.2 °F 88% 30.09 in 6.2 mi WNW 6.9 mph - N/A Rain Rain
3:50 AM 53.6 °F 48.2 °F 82% 30.09 in 6.2 mi Variable 2.3 mph - N/A   Scattered Clouds
4:20 AM 53.6 °F 48.2 °F 82% 30.09 in 6.2 mi Variable 3.5 mph - N/A   Scattered Clouds
4:50 AM 53.6 °F 48.2 °F 82% 30.09 in 6.2 mi SSE 5.8 mph - N/A   Scattered Clouds
5:00 AM 52 °F 49 °F 85% 30.10 in 6 mi SSE 5.8 mph - -   Partly Cloudy
5:20 AM 51.8 °F 48.2 °F 88% 30.09 in 6.2 mi Variable 2.3 mph - N/A   Scattered Clouds
5:50 AM 50.0 °F 48.2 °F 94% 30.12 in 6.2 mi ENE 5.8 mph - N/A   Partly Cloudy
6:20 AM 50.0 °F 46.4 °F 87% 30.12 in - Variable 2.3 mph - N/A   Clear
7:20 AM 53.6 °F 48.2 °F 82% 30.15 in - Variable 2.3 mph - N/A   Clear
7:50 AM 53.6 °F 48.2 °F 82% 30.15 in - Variable 2.3 mph - N/A   Clear
8:00 AM 54 °F 47 °F 71% 30.17 in 6 mi 1.2 mph - -   Partly Cloudy
8:20 AM 55.4 °F 48.2 °F 77% 30.18 in - Variable 2.3 mph - N/A   Clear
8:50 AM 57.2 °F 44.6 °F 63% 30.18 in - Variable 1.2 mph - N/A   Clear
9:20 AM 60.8 °F 39.2 °F 45% 30.18 in - WNW 10.4 mph - N/A   Clear
9:50 AM 59.0 °F 39.2 °F 48% 30.18 in - NW 11.5 mph - N/A   Clear
10:20 AM 60.8 °F 39.2 °F 45% 30.18 in - NW 12.7 mph - N/A   Clear
10:50 AM 60.8 °F 37.4 °F 42% 30.18 in - NW 9.2 mph - N/A   Clear
11:00 AM 60 °F 38 °F 32% 30.21 in 6 mi NW 9.2 mph - -   Partly Cloudy
11:20 AM 60.8 °F 39.2 °F 45% 30.18 in - NW 11.5 mph - N/A   Clear
11:50 AM 60.8 °F 41.0 °F 48% 30.18 in - NW 11.5 mph - N/A   Clear
12:20 PM 60.8 °F 39.2 °F 45% 30.18 in - WNW 12.7 mph - N/A   Clear
12:50 PM 60.8 °F 37.4 °F 42% 30.18 in - WNW 6.9 mph - N/A   Clear
1:20 PM 60.8 °F 41.0 °F 48% 30.18 in - NW 10.4 mph - N/A   Clear
1:50 PM 62.6 °F 41.0 °F 45% 30.18 in 6.2 mi WNW 10.4 mph - N/A   Scattered Clouds
2:00 PM 61 °F 41 °F 35% 30.20 in 6 mi West 9.2 mph - -   Mostly Cloudy
2:20 PM 60.8 °F 41.0 °F 48% 30.18 in 6.2 mi West 10.4 mph - N/A   Scattered Clouds
2:50 PM 62.6 °F 41.0 °F 45% 30.21 in 6.2 mi WNW 9.2 mph - N/A   Scattered Clouds
3:20 PM 60.8 °F 41.0 °F 48% 30.21 in 6.2 mi West 10.4 mph - N/A   Scattered Clouds
3:50 PM 60.8 °F 41.0 °F 48% 30.21 in 6.2 mi NNW 10.4 mph - N/A   Scattered Clouds
4:20 PM 59.0 °F 41.0 °F 51% 30.21 in 6.2 mi NW 10.4 mph - N/A   Scattered Clouds
4:50 PM 59.0 °F 39.2 °F 48% 30.24 in 6.2 mi NW 8.1 mph - N/A   Partly Cloudy
5:20 PM 59.0 °F 39.2 °F 48% 30.24 in 6.2 mi NW 8.1 mph - N/A   Partly Cloudy
5:50 PM 57.2 °F 39.2 °F 51% 30.24 in 6.2 mi NW 5.8 mph - N/A   Partly Cloudy
6:20 PM 57.2 °F 39.2 °F 51% 30.24 in 6.2 mi NW 5.8 mph - N/A   Partly Cloudy
6:50 PM 55.4 °F 41.0 °F 58% 30.27 in 6.2 mi NW 4.6 mph - N/A   Partly Cloudy
7:20 PM 57.2 °F 39.2 °F 51% 30.27 in 6.2 mi Variable 2.3 mph - N/A   Partly Cloudy
7:50 PM 55.4 °F 41.0 °F 58% 30.27 in 6.2 mi Variable 3.5 mph - N/A   Partly Cloudy
8:00 PM 55 °F 41 °F 48% 30.29 in 6 mi 3.5 mph - -   Scattered Clouds
8:20 PM 55.4 °F 41.0 °F 58% 30.27 in 6.2 mi SE 4.6 mph - N/A   Partly Cloudy
8:50 PM 53.6 °F 41.0 °F 62% 30.27 in 6.2 mi ESE 5.8 mph - N/A   Partly Cloudy
9:20 PM 51.8 °F 41.0 °F 67% 30.30 in 6.2 mi ESE 6.9 mph - N/A   Partly Cloudy
9:50 PM 51.8 °F 42.8 °F 71% 30.30 in 6.2 mi ESE 5.8 mph - N/A   Scattered Clouds
10:20 PM 51.8 °F 42.8 °F 71% 30.30 in 6.2 mi SE 5.8 mph - N/A   Scattered Clouds
10:50 PM 51.8 °F 42.8 °F 71% 30.30 in 6.2 mi ESE 6.9 mph - N/A   Partly Cloudy
11:00 PM 51 °F 42 °F 61% 30.31 in 6 mi ESE 6.9 mph - -   Partly Cloudy
11:20 PM 51.8 °F 41.0 °F 67% 30.30 in - SE 5.8 mph - N/A   Clear
11:50 PM 51.8 °F 41.0 °F 67% 30.30 in 6.2 mi Variable 3.5 mph - N/A   Partly Cloudy